Hourly Data Report for May 23, 2012

All times are specified in Local Standard Time (LST). Add 1 hour to adjust for Daylight Saving Time where and when it is observed.

ST. JOHN'S INTL A
NEWFOUNDLAND

47°37'07.000" N
52°45'09.000" W
140.50 m
8403505
71801
YYT

Download Data

Hourly Data (May 2012)
Hourly Data Report for May 23, 2012
Temp Definition
°C
Dew Point Temp Definition
°C
Rel Hum Definition
%
Wind Dir Definition
10's deg

Wind Spd Definition
km/h
Visibility Definition
km
Stn Press Definition
kPa
Hmdx Definition


Wind Chill Definition


Weather Definition


TIME
00:30 Legend Double Dagger 13.0 12.7 98 26 41 10.0 100.03     LegendNANA
01:30 Legend Double Dagger 13.6 13.0 96 26 35 10.0 100.04     LegendNANA
02:30 Legend Double Dagger 13.0 11.7 92 25 34 10.0 100.08     Mainly Clear
03:30 Legend Double Dagger 13.0 11.1 88 25 23 10.0 100.09     LegendNANA
04:30 Legend Double Dagger 12.8 10.9 88 24 29 10.0 100.10     LegendNANA
05:30 Legend Double Dagger 12.7 11.0 89 24 30 10.0 100.06     Mostly Cloudy
06:30 Legend Double Dagger 14.7 12.4 86 25 27 10.0 100.03     LegendNANA
07:30 Legend Double Dagger 15.9 13.6 86 23 18 10.0 100.04     LegendNANA
08:30 Legend Double Dagger 17.8 15.1 84 22 24 10.0 99.97     Cloudy
09:30 Legend Double Dagger 17.6 16.0 90 22 29 10.0 99.94     Rain Showers
10:30 Legend Double Dagger 17.8 16.5 92 21 32 10.0 99.92     Rain Showers
11:30 Legend Double Dagger 19.6 16.3 81 21 34 10.0 99.87     Rain Showers
12:30 Legend Double Dagger 21.2 16.7 75 19 29 10.0 99.75 26   LegendNANA
13:30 Legend Double Dagger 21.3 15.7 70 20 39 10.0 99.66 26   Rain Showers
14:30
15:30 Legend Double Dagger 17.6 16.3 92 21 32 10.0 99.54     Rain Showers
16:30 Legend Double Dagger 17.1 16.0 93 21 36 10.0 99.50     Rain Showers
17:30 Legend Double Dagger 15.6 15.0 96 23 30 10.0 99.49     Rain
18:30 Legend Double Dagger 15.8 15.3 97 23 31 10.0 99.43     Rain Showers
19:30 Legend Double Dagger 14.4 14.1 98 23 28 10.0 99.43     Rain Showers
20:30 Legend Double Dagger 14.2 13.9 98 22 28 10.0 99.41     Rain Showers
21:30 Legend Double Dagger 12.1 12.0 99 27 23 8.1 99.43     Rain Showers,Fog
22:30 Legend Double Dagger 12.4 12.4 100 25 22 10.0 99.40     Rain Showers
23:30 Legend Double Dagger 11.4 11.3 99 28 19 10.0 99.46     Rain Showers

Notes on Data Quality.

Legend

  • E = Estimated
  • M = Missing
  • NA = Not Available
  • ‡ = Partner data that is not subject to review by the National Climate Archives
Date modified: